Regional Weather Roundup
Issued by NWS Raleigh/Durham, NC

Home | Current Version | Previous Version | Text Only | Print | Product List | Glossary On
Versions: 1 2 3 4 5 6 7 8 9 10 11 12 13 14 15 16 17 18 19 20 21 22 23 24 25 26 27 28
000
ASUS42 KRAH 190610
RWRRAH
NORTH CAROLINA WEATHER ROUNDUP
NATIONAL WEATHER SERVICE RALEIGH NC
200 AM EDT THU OCT 19 2017

NOTE: "FAIR" INDICATES FEW OR NO CLOUDS BELOW 12,000 FEET WITH NO
SIGNIFICANT WEATHER AND/OR OBSTRUCTIONS TO VISIBILITY.

NCZ001-053-055-056-065-067-190700-
WESTERN NORTH CAROLINA

CITY           SKY/WX    TMP DP  RH WIND       PRES   REMARKS
ASHEVILLE      CLEAR     43  41  93 CALM      30.34F
JEFFERSON      CLEAR     44  39  83 CALM      30.33F
MORGANTON      CLEAR     39  39 100 CALM      30.36S
HICKORY        CLEAR     47  45  93 NW3       30.31F
RUTHERFORDTON  CLEAR     43  43 100 CALM      30.32F
MOUNT AIRY     PTCLDY    46  42  86 CALM      30.34S
BOONE          CLEAR     37  37 100 CALM      30.35F
$$

NCZ021-022-025-041-071-084-088-190700-
CENTRAL NORTH CAROLINA

CITY           SKY/WX    TMP DP  RH WIND       PRES   REMARKS
CHARLOTTE      PTCLDY    44  44 100 N5        30.31F
GREENSBORO     CLEAR     45  42  89 CALM      30.30F
WINSTON-SALEM  PTCLDY    45  40  82 CALM      30.32F
RALEIGH-DURHAM PTCLDY    44  44 100 CALM      30.32S
FORT BRAGG     CLEAR     47  45  93 CALM      30.29S
FAYETTEVILLE   CLEAR     50  48  93 N7        30.28F
BURLINGTON     CLEAR     42  41  96 CALM      30.32S
LAURINBURG     CLEAR     47  45  93 N3        30.30S
$$

NCZ011-015-027-028-043-044-047-080-103-190700-
NORTHEASTERN NORTH CAROLINA

CITY           SKY/WX    TMP DP  RH WIND       PRES   REMARKS
ROCKY MT-WILSO CLEAR     48  48 100 CALM      30.30F
GREENVILLE     FOG       48  48 100 CALM      30.30F VSB 1
WASHINGTON     PTCLDY    55  53  92 NE5       30.30S
ELIZABETH CITY CLEAR     59  56  89 NE8       30.30F
MANTEO         CLEAR    N/A N/A N/A NE5       30.30S
CAPE HATTERAS  MOCLDY    67  63  87 NE6       30.26S
$$

NCZ078-087-090-091-093-098-101-190700-
SOUTHEASTERN NORTH CAROLINA

CITY           SKY/WX    TMP DP  RH WIND       PRES   REMARKS
LUMBERTON      CLEAR     47  46  97 NE5       30.28S
GOLDSBORO      CLEAR     52  50  93 CALM      30.28S FOG
KINSTON        CLEAR     49  48  98 CALM      30.30S FOG
KENANSVILLE    CLEAR     48  46  93 CALM      30.29S
NEW BERN       CLOUDY    59  57  93 N5        30.29F
CHERRY POINT   PTCLDY    61  58  90 NE8       30.28F
BEAUFORT       PTCLDY    62  59  90 N8        30.26S
JACKSONVILLE   MOCLDY    59  57  93 N7        30.27S
WILMINGTON     CLEAR     57  54  89 NE8       30.26F
$$





USA.gov is the U.S. government's official web portal to all federal, state and local government web resources and services.